Dunkirk, NY

10:52 AM EDT on October 20, 2017 (GMT -0400)
Chautauqua County-Dunkirk

Weather History for KDKK - May, 2013

Change the Weather History Date:

Wednesday, May 15, 2013

  Actual Average Record
Temperature  
Mean Temperature 66 °F -  
Max Temperature 79 °F 69 °F 88 °F (1974)
Min Temperature 52 °F 47 °F 34 °F (1948)
Growing Degree Days 16 (Base 50)    
Moisture  
Dew Point 46 °F    
Average Humidity 53    
Maximum Humidity 74    
Minimum Humidity 42    
Precipitation  
Precipitation 0.00 in - - ()
Sea Level Pressure  
Sea Level Pressure 29.72 in    
Wind  
Wind Speed 13 mph (SSW)    
Max Wind Speed 26 mph    
Max Gust Speed 48 mph    
Visibility 10 miles    
Events Rain    
Averages and records for this station are not official NWS values.
T = Trace of Precipitation, MM = Missing Value Source: NWS Daily Summary

Daily Weather History Graph

Daily Weather History Graph

Search for Another Location

Airport or City:

Trip Planner

Search our weather history database for the weather conditions in past years. The results will help you decide how hot, cold, wet, or windy it might be!

Date:

Astronomy

May. 15, 2013 Rise Set
Actual Time 5:55 AM EDT 8:32 PM EDT
Civil Twilight 5:22 AM EDT 9:04 PM EDT
Nautical Twilight 4:42 AM EDT 9:45 PM EDT
Astronomical Twilight 3:56 AM EDT 10:31 PM EDT
Moon 10:30 AM EDT (5/15) 12:16 AM EDT (5/15)
Length of Visible Light 15h 42m
Length of Day
14h 37m
Waxing Crescent, 26% of the Moon is Illuminated
May 15
Waxing Crescent
May 18
First Quarter
May 25
Full
May 31
Last Quarter
Jun 8
New

Hourly Weather History & Observations

Time (EDT) Temp. Dew Point Humidity Pressure Visibility Wind Dir Wind Speed Gust Speed Precip Events Conditions
12:53 AM 55.0 °F 36.0 °F 49% 29.87 in 10.0 mi SSE 13.8 mph 23.0 mph N/A   Mostly Cloudy
1:53 AM 55.0 °F 35.1 °F 47% 29.85 in 10.0 mi South 9.2 mph - N/A   Partly Cloudy
2:53 AM 57.9 °F 35.1 °F 42% 29.81 in 10.0 mi South 16.1 mph 25.3 mph N/A   Mostly Cloudy
3:53 AM 57.9 °F 36.0 °F 44% 29.78 in 10.0 mi Calm Calm - N/A   Clear
4:53 AM 59.0 °F 37.0 °F 44% 29.73 in 10.0 mi South 18.4 mph 33.4 mph N/A   Mostly Cloudy
5:53 AM 52.0 °F 39.0 °F 61% 29.73 in 10.0 mi South 18.4 mph 24.2 mph 0.00 in   Clear
6:53 AM 59.0 °F 44.1 °F 58% 29.71 in 10.0 mi SSE 11.5 mph - 0.00 in   Overcast
7:53 AM 61.0 °F 46.9 °F 60% 29.68 in 10.0 mi South 16.1 mph 26.5 mph 0.00 in Rain Light Rain
8:53 AM 63.0 °F 46.9 °F 56% 29.64 in 10.0 mi South 19.6 mph 34.5 mph 0.00 in   Scattered Clouds
9:53 AM 68.0 °F 50.0 °F 52% 29.62 in 10.0 mi SSW 21.9 mph 39.1 mph N/A   Clear
10:53 AM 73.0 °F 54.0 °F 51% 29.61 in 10.0 mi SSW 18.4 mph 33.4 mph N/A   Clear
11:53 AM 79.0 °F 55.9 °F 45% 29.60 in 10.0 mi WSW 25.3 mph 35.7 mph N/A   Clear
12:53 PM 77.0 °F 54.0 °F 45% 29.61 in 10.0 mi WSW 26.5 mph 48.3 mph N/A   Clear
1:53 PM 73.9 °F 54.0 °F 50% 29.64 in 10.0 mi WSW 24.2 mph 47.2 mph N/A   Clear
2:53 PM 72.0 °F 52.0 °F 49% 29.67 in 10.0 mi WSW 21.9 mph 35.7 mph N/A   Clear
3:53 PM 68.0 °F 48.9 °F 50% 29.70 in 10.0 mi WSW 15.0 mph 25.3 mph N/A   Clear
4:53 PM 69.1 °F 48.9 °F 49% 29.70 in 10.0 mi WSW 10.4 mph - N/A   Clear
5:53 PM 71.1 °F 48.9 °F 45% 29.71 in 10.0 mi SW 9.2 mph - N/A   Clear
6:53 PM 70.0 °F 46.9 °F 44% 29.73 in 10.0 mi WSW 10.4 mph - N/A   Clear
7:53 PM 64.9 °F 48.0 °F 54% 29.74 in 10.0 mi SW 5.8 mph - N/A   Clear
8:53 PM 62.1 °F 46.9 °F 58% 29.75 in 10.0 mi SW 4.6 mph - N/A   Clear
9:53 PM 57.0 °F 48.9 °F 74% 29.77 in 10.0 mi Calm Calm - N/A   Clear
10:53 PM 57.0 °F 48.9 °F 74% 29.78 in 10.0 mi Calm Calm - N/A   Clear
11:53 PM 57.0 °F 48.9 °F 74% 29.76 in 10.0 mi Calm Calm - N/A   Scattered Clouds